Retour au catalogue

STARLINK-31791

ActifCommunicationsVLEO
NORAD 59637·PAYLOAD·🇺🇸 United States

Lancé May 3, 2024 depuis Cape Canaveral Space Force Station

Loading…

Prochains Passages (prochaines 24 heures)

TLE

FraisSource: CelesTrak SupGP

Époque: Sep 14, 2026, 21:08 UTC

1 59637C 24082G   26257.88104167 -.00047339  00000+0 -17146-2 0  2578
2 59637  43.0005 151.1268 0001222 268.2932 283.9751 15.27602149    10

Suivez STARLINK-31791 en temps réel avec AllMySat

Download on the App Store